Location: Newark
(52.2090°N, 4.1550°W)
Time: 08:29:02
(UTC+00:00)

Transit 4A - Pass Details

Date: 31 October 2019
Orbit: 869 x 976 km, 66.8° (Epoch: 20 November)

Event Time Altitude Azimuth Distance (km) Brightness Sun altitude
Exits shadow 05:49:53 15° 298° (WNW) 2,340 9.4 -12.6°
Maximum altitude 05:53:34 24° 342° (NNW) 1,828 9.2 -12.1°
Drops below altitude 10° 05:58:25 10° 35° (NE) 2,611 10.6 -11.3°
Sets 06:01:27 0° 50° (NE) 3,535 11.6 -10.9°
